[[{"header":{"parameterUnit":"m.s-1","parameterCategory":1,"la1":30.2991,"la2":30.254,"lo1":-89.0895,"lo2":-89.0444,"dy":0.0017,"dx":0.0017,"nx":28,"ny":28,"refTime":"2026-02-14T03:00:00:Z","depth":0,"parameterNumber":2,"parameterNumberName":"U-component_of_WINDS"},"data":[0,0,0,0,0,0,0,0,0,0,0,0,0,0,0,0,0,0,0,0,0,0,0,0,0,0,0,0,0,0,0,0,0,0,0,0,0,0,0,0,0,0,0,0,0,0,0,0,0,0,0,0,0,0,0,0,0,0,5.0556,5.0556,0,5.0535,5.0535,5.0535,5.0452,5.045,5.0448,5.0446,5.0427,5.0428,5.0429,0,0,0,0,0,0,0,0,0,0,0,0,0,5.0527,5.0528,5.0556,5.0556,5.0555,5.0535,5.0535,5.0535,5.0452,5.045,5.0448,5.0445,5.0426,5.0428,5.0429,0,0,0,0,0,0,0,0,0,0,0,0,0,5.0526,5.0528,5.0556,5.0512,5.0507,5.0535,5.0535,5.0535,5.0453,5.045,5.0447,5.0444,5.0426,5.0427,5.0429,5.0499,0,0,5.0435,5.0436,0,0,0,0,0,0,0,0,5.0526,5.0527,5.0518,5.0515,5.051,5.0493,5.0517,5.0523,5.0453,5.0474,5.0446,5.0443,5.0451,5.0451,5.0453,5.0498,5.0497,5.0435,5.0436,5.0437,5.0438,0,0,0,0,0,0,0,5.0526,5.0528,5.0548,5.0518,5.0513,5.0494,5.0491,5.0518,5.0479,5.0472,5.0466,5.0464,5.0448,5.0452,5.0452,5.0496,5.0435,5.0437,5.0438,5.0439,5.0599,5.0602,0,0,0,0,0,0,5.0532,5.0528,5.0548,5.0547,5.0511,5.0497,5.0493,5.0502,5.0478,5.0472,5.0467,5.046,5.045,5.045,5.0451,5.0531,5.0437,5.0439,5.044,5.0596,5.0599,5.0603,0,0,0,0,0,0,5.0532,5.0535,5.0549,5.0536,5.0536,5.05,5.051,5.0503,5.0506,5.0474,5.0467,5.0477,5.0448,5.0448,5.0488,5.0529,5.044,5.0442,5.0592,5.0597,5.0601,5.0692,0,0,0,0,0,0,5.0532,5.0535,5.056,5.0537,5.0537,5.0585,5.0513,5.0504,5.0509,5.0501,5.0482,5.0476,5.0445,5.0485,5.049,5.053,5.0443,5.0588,5.0594,5.06,5.0685,5.0699,5.0711,0,0,0,0,0,5.0531,5.0586,5.0562,5.0565,5.0568,5.0588,5.0588,5.0551,5.0513,5.0538,5.0519,5.0477,5.0525,5.049,5.0494,5.0536,5.0585,5.0592,5.0599,5.0679,5.0697,5.0711,0,0,0,0,0,0,5.0615,5.0582,5.0555,5.0605,5.06,5.0574,5.0604,5.057,5.0576,5.0568,5.0522,5.0518,5.0565,5.0554,5.0516,5.0603,5.0548,5.0556,5.0608,5.0624,5.0637,5.0638,5.0445,0,0,0,0,0,5.064,5.0658,5.0629,5.0676,5.0675,5.0641,5.0648,5.062,5.0613,5.061,5.0593,5.0589,5.0603,5.0613,5.0624,5.0684,5.0679,5.0715,5.0728,5.0739,5.0747,5.0779,5.0795,5.0626,5.0626,5.0626,0,0,5.069,5.0675,5.0689,5.0692,5.0685,5.0706,5.0639,5.0664,5.0679,5.0614,5.065,5.0638,5.063,5.0681,5.0702,5.0673,5.0793,5.0748,5.0757,5.0758,5.0788,5.0804,5.0818,5.0631,5.063,5.0629,0,0,5.0793,5.0783,5.0821,5.0816,5.0806,5.0783,5.0793,5.0773,5.0762,5.0798,5.075,5.0769,5.0793,5.079,5.0792,5.0897,5.0859,5.0902,5.097,5.1002,5.1016,5.1027,5.1065,5.1079,5.091,5.091,5.091,0,5.0856,5.0885,5.0845,5.0874,5.0877,5.082,5.086,5.0857,5.0851,5.0856,5.0824,5.0855,5.0846,5.0896,5.0922,5.0925,5.0935,5.0903,5.1017,5.1028,5.1038,5.1074,5.1088,5.0915,5.0915,5.0914,5.0913,0,5.0965,5.0986,5.1019,5.1015,5.1023,5.1057,5.1023,5.1036,5.1008,5.0989,5.1028,5.1015,5.1023,5.1033,5.1006,5.108,5.1062,5.1025,5.0968,5.106,5.1093,5.1107,5.0923,5.0921,5.0919,5.0918,0,0,5.1117,5.1093,5.1106,5.1105,5.1091,5.1107,5.114,5.1148,5.116,5.116,5.1186,5.121,5.1176,5.1178,5.115,5.1179,5.1264,5.1138,5.1137,5.1162,5.1345,5.1373,5.139,5.124,5.1242,5.1244,5.1346,0,5.1215,5.1268,5.1234,5.1293,5.1313,5.1261,5.1289,5.1285,5.1269,5.1285,5.1267,5.1285,5.1238,5.124,5.1266,5.1248,5.13,5.124,5.1265,5.1266,5.1267,5.1407,5.1436,5.1533,5.1359,5.1361,5.1362,0,5.1335,5.1341,5.1402,5.1386,5.1393,5.1419,5.1425,5.144,5.1436,5.1422,5.1426,5.1392,5.1425,5.137,5.1415,5.1375,5.1383,5.1377,5.1379,5.1379,5.1319,5.1411,5.1562,5.1577,5.1382,5.1381,5.1379,0,5.1441,5.1463,5.1503,5.1503,5.1486,5.1506,5.15,5.1492,5.15,5.1506,5.1511,5.1521,5.1526,5.1535,5.1505,5.1468,5.1554,5.1497,5.1544,5.1545,5.1563,5.1563,5.1719,5.157,5.157,5.157,5.1569,0,5.1553,5.1593,5.155,5.1575,5.1618,5.158,5.1624,5.1613,5.1607,5.1629,5.1585,5.1607,5.1567,5.1585,5.1563,5.1603,5.1606,5.1597,5.159,5.16,5.1602,5.1604,5.1597,5.1574,5.1573,5.1572,5.1571,0,5.1678,5.1651,5.169,5.1672,5.1668,5.1701,5.1686,5.1708,5.1691,5.1719,5.1724,5.1696,5.1716,5.1688,5.1704,5.1689,5.1745,5.1729,5.1747,5.1742,5.1791,5.1787,5.1954,5.1974,5.1813,5.1815,5.1816,0,5.175,5.178,5.1765,5.1777,5.1773,5.1792,5.1801,5.1766,5.1776,5.1774,5.1797,5.1813,5.1824,5.1858,5.184,5.1853,5.1836,5.1894,5.1838,5.1848,5.1837,5.1836,5.1839,5.1905,5.1907,5.1909,5.191,0,5.1883,5.1869,5.1882,5.1892,5.1903,5.1909,5.1911,5.1924,5.1887,5.1902,5.1921,5.193,5.1947,5.1964,5.1973,5.1968,5.1934,5.1928,5.194,5.195,5.196,5.1955,5.1778,5.1924,5.1923,5.1922,5.1921,5.192,5.1984,5.2008,5.2002,5.2019,5.2017,5.2021,5.2042,5.2028,5.2043,5.2055,5.2034,5.2059,5.2056,5.2064,5.2063,5.2083,5.2058,5.2075,5.2079,5.2083,5.2091,5.1957,5.2085,5.2084,5.2084,5.2083,5.2083,0,5.2114,5.2108,5.2124,5.213,5.2144,5.2111,5.2113,5.2127,5.215,5.2149,5.2161,5.2185,5.2202,5.2186,5.22,5.222,5.2204,5.2225,5.2222,5.2222,5.2113,5.2101,5.2237,5.2237,5.2237,5.2237,5.2237,5.2237,5.2183,5.2223,5.2209,5.2248,5.2242,5.2266,5.227,5.2275,5.2274,5.2303,5.2317,5.2306,5.2301,5.2314,5.2329,5.2324,5.2331,5.2357,5.2347,5.2245,5.2229,5.2215,5.2204,5.2359,5.2359,5.2454,5.2455,5.2456]},{"header":{"parameterUnit":"m.s-1","parameterCategory":1,"la1":30.2991,"la2":30.254,"lo1":-89.0895,"lo2":-89.0444,"dy":0.0017,"dx":0.0017,"nx":28,"ny":28,"refTime":"2026-02-14T03:00:00:Z","depth":0,"parameterNumber":3,"parameterNumberName":"V-component_of_WINDS"},"data":[0,0,0,0,0,0,0,0,0,0,0,0,0,0,0,0,0,0,0,0,0,0,0,0,0,0,0,0,0,0,0,0,0,0,0,0,0,0,0,0,0,0,0,0,0,0,0,0,0,0,0,0,0,0,0,0,0,0,0.5127,0.5128,0,0.5232,0.5234,0.5235,0.5175,0.5172,0.5169,0.5166,0.5279,0.5284,0.529,0,0,0,0,0,0,0,0,0,0,0,0,0,0.4879,0.4884,0.5127,0.5128,0.513,0.5232,0.5234,0.5235,0.5175,0.5171,0.5168,0.5165,0.5277,0.5284,0.5291,0,0,0,0,0,0,0,0,0,0,0,0,0,0.4986,0.4885,0.5127,0.5112,0.5112,0.5232,0.5234,0.5235,0.5176,0.5171,0.5167,0.5163,0.5275,0.5283,0.5292,0.5434,0,0,0.5318,0.5322,0,0,0,0,0,0,0,0,0.498,0.4995,0.5113,0.5113,0.5113,0.5186,0.5187,0.5302,0.5177,0.5152,0.5166,0.5161,0.5252,0.5262,0.5292,0.5439,0.5444,0.5319,0.5324,0.5328,0.533,0,0,0,0,0,0,0,0.4973,0.499,0.5169,0.5115,0.5115,0.5102,0.5112,0.5209,0.5226,0.5154,0.5149,0.5162,0.5251,0.5283,0.5294,0.5445,0.5318,0.5326,0.5331,0.5335,0.5714,0.5719,0,0,0,0,0,0,0.4965,0.4984,0.5166,0.5172,0.5034,0.511,0.5121,0.5167,0.5224,0.5229,0.5166,0.5159,0.5271,0.5284,0.5298,0.5467,0.5328,0.5336,0.5341,0.5709,0.5715,0.572,0,0,0,0,0,0,0.496,0.4982,0.5161,0.5077,0.5099,0.5119,0.5171,0.5171,0.5204,0.5234,0.5237,0.5196,0.5268,0.5285,0.54,0.547,0.534,0.5347,0.5703,0.5711,0.5718,0.5807,0,0,0,0,0,0,0.4954,0.4981,0.5034,0.5079,0.5104,0.5261,0.5175,0.5177,0.5218,0.521,0.5262,0.5267,0.5266,0.5387,0.5408,0.548,0.5354,0.5697,0.5707,0.5715,0.5798,0.5817,0.5833,0,0,0,0,0,0.4945,0.5056,0.5037,0.5059,0.517,0.5265,0.5279,0.5274,0.5224,0.5278,0.5297,0.5265,0.5459,0.5399,0.5423,0.5498,0.5693,0.5704,0.5715,0.5791,0.5813,0.5832,0,0,0,0,0,0,0.5022,0.5062,0.5041,0.517,0.5214,0.5254,0.5323,0.5299,0.5359,0.535,0.5342,0.5355,0.5473,0.5497,0.543,0.5638,0.5568,0.5584,0.5618,0.564,0.5657,0.5648,0.5361,0,0,0,0,0,0.5053,0.5125,0.5157,0.5268,0.5291,0.5303,0.5344,0.5336,0.5383,0.5401,0.5429,0.5476,0.5548,0.5595,0.5663,0.5801,0.5812,0.5865,0.5882,0.5896,0.591,0.5984,0.6008,0.5756,0.5756,0.5756,0,0,0.512,0.5151,0.5197,0.5284,0.5317,0.5393,0.532,0.5403,0.5459,0.5415,0.5523,0.5546,0.5598,0.5725,0.5782,0.5748,0.5982,0.591,0.5921,0.5927,0.5998,0.6022,0.6043,0.5764,0.5763,0.5761,0,0,0.5279,0.531,0.5405,0.544,0.549,0.5497,0.5521,0.5565,0.5577,0.5685,0.5653,0.5721,0.5844,0.5883,0.5918,0.6092,0.6065,0.6114,0.6205,0.6277,0.6297,0.6315,0.6376,0.6398,0.6128,0.6129,0.6129,0,0.5356,0.5467,0.5458,0.5543,0.5583,0.5544,0.564,0.5675,0.5746,0.5775,0.5735,0.5888,0.5921,0.6056,0.6098,0.6129,0.6155,0.6108,0.6295,0.6312,0.6329,0.6387,0.641,0.6134,0.6134,0.6133,0.6132,0,0.5559,0.5637,0.5708,0.5775,0.5823,0.5914,0.5919,0.5968,0.5956,0.5968,0.6079,0.6117,0.6191,0.6223,0.6213,0.6356,0.6333,0.6295,0.6225,0.6358,0.6413,0.6436,0.6142,0.614,0.6139,0.6137,0,0,0.577,0.583,0.5856,0.5886,0.5938,0.5999,0.6089,0.6159,0.6202,0.6252,0.6327,0.6432,0.6396,0.6436,0.643,0.6494,0.6629,0.6448,0.6449,0.648,0.6789,0.6817,0.6843,0.6611,0.6615,0.6618,0.6784,0,0.5933,0.6087,0.608,0.6225,0.6297,0.6261,0.6339,0.638,0.6394,0.6457,0.6473,0.6547,0.6494,0.6518,0.658,0.6599,0.6691,0.6587,0.6681,0.6685,0.6669,0.6872,0.6903,0.7058,0.6806,0.6809,0.6812,0,0.6143,0.6198,0.6349,0.639,0.642,0.649,0.6554,0.6615,0.6662,0.6667,0.6712,0.6695,0.6787,0.6714,0.684,0.677,0.6808,0.6824,0.6829,0.6838,0.6756,0.6886,0.7107,0.713,0.6846,0.6843,0.6841,0,0.628,0.6393,0.6497,0.6524,0.6575,0.6625,0.6649,0.6691,0.6734,0.679,0.6817,0.6885,0.6921,0.6974,0.6976,0.6923,0.7104,0.7032,0.7112,0.7112,0.7151,0.7149,0.7381,0.7177,0.7176,0.7176,0.7175,0,0.6462,0.6556,0.656,0.6624,0.6729,0.6721,0.6825,0.6844,0.6882,0.695,0.6924,0.6989,0.6988,0.7054,0.7057,0.7161,0.7178,0.7186,0.7185,0.7188,0.7187,0.7213,0.7202,0.7182,0.7181,0.7179,0.7178,0,0.6634,0.664,0.6752,0.679,0.6802,0.6877,0.6911,0.6973,0.6983,0.707,0.709,0.7108,0.7184,0.7192,0.7282,0.7283,0.7409,0.7397,0.7393,0.7391,0.747,0.7462,0.7727,0.7761,0.7535,0.7537,0.7539,0,0.6749,0.682,0.6866,0.6908,0.6935,0.7005,0.7047,0.7043,0.7089,0.7147,0.7202,0.7276,0.7334,0.7459,0.7481,0.7549,0.7539,0.7627,0.7549,0.7549,0.754,0.7535,0.7542,0.7642,0.7644,0.7646,0.7648,0,0.6952,0.6952,0.7013,0.7077,0.7128,0.7178,0.7225,0.7262,0.7263,0.7317,0.7394,0.7439,0.753,0.7604,0.7671,0.7697,0.7673,0.7672,0.7694,0.7698,0.7692,0.7696,0.7433,0.7666,0.7664,0.7663,0.7662,0.7661,0.7099,0.716,0.7201,0.7271,0.7305,0.735,0.7409,0.7427,0.749,0.7563,0.7557,0.7642,0.7687,0.7774,0.7805,0.7873,0.7843,0.7876,0.7884,0.7892,0.7899,0.7681,0.7885,0.7885,0.7884,0.7884,0.7883,0,0.7301,0.7325,0.7389,0.7455,0.751,0.7481,0.7531,0.758,0.7655,0.7698,0.7755,0.7844,0.7916,0.7942,0.8012,0.8061,0.8052,0.808,0.8076,0.8082,0.7922,0.7896,0.8086,0.8085,0.8085,0.8085,0.8085,0.8085,0.7412,0.7514,0.7518,0.7637,0.7661,0.7743,0.7774,0.7815,0.7849,0.7949,0.8008,0.8024,0.8061,0.8133,0.8197,0.8203,0.823,0.8262,0.8264,0.8114,0.8093,0.8074,0.8049,0.8268,0.8269,0.8418,0.842,0.8421]}]]